Time,TemperatureF,DewpointF,PressureIn,WindDirection,WindDirectionDegrees,WindSpeedMPH,WindSpeedGustMPH,Humidity,HourlyPrecipIn,Conditions,Clouds,dailyrainin,SolarRadiationWatts/m^2,SoftwareType,DateUTC
2013-04-04 00:02:00,31.2,15.2,30.20,WNW,285,0.0,0.0,51,0.00,,,0.00,0,WeatherCatV1.14B232,2013-04-04 06:02:00,
2013-04-04 00:07:00,30.6,15.5,30.20,WNW,292,3.0,3.0,53,0.00,,,0.00,0,WeatherCatV1.14B232,2013-04-04 06:07:00,
2013-04-04 00:12:00,30.1,15.1,30.20,WNW,292,0.0,3.0,53,0.00,,,0.00,0,WeatherCatV1.14B232,2013-04-04 06:12:00,
2013-04-04 00:17:00,30.0,15.0,30.20,WNW,292,0.0,0.0,53,0.00,,,0.00,0,WeatherCatV1.14B232,2013-04-04 06:17:00,
2013-04-04 00:22:00,30.0,15.0,30.20,WNW,292,0.0,0.0,53,0.00,,,0.00,0,WeatherCatV1.14B232,2013-04-04 06:22:00,
2013-04-04 00:27:00,30.0,15.0,30.20,WNW,292,5.0,5.0,53,0.00,,,0.00,0,WeatherCatV1.14B232,2013-04-04 06:27:00,
2013-04-04 00:31:00,29.7,15.5,30.20,WNW,292,1.0,5.0,55,0.00,,,0.00,0,WeatherCatV1.14B232,2013-04-04 06:31:00,
2013-04-04 00:37:00,29.4,15.3,30.20,WNW,292,2.0,4.0,55,0.00,,,0.00,0,WeatherCatV1.14B232,2013-04-04 06:37:00,
2013-04-04 00:42:00,29.3,15.6,30.20,WNW,292,0.0,0.0,56,0.00,,,0.00,0,WeatherCatV1.14B232,2013-04-04 06:42:00,
2013-04-04 00:47:00,29.5,15.8,30.20,WNW,296,6.0,8.0,56,0.00,,,0.00,0,WeatherCatV1.14B232,2013-04-04 06:47:00,
2013-04-04 00:52:00,30.1,15.5,30.20,WNW,296,0.0,3.0,54,0.00,,,0.00,0,WeatherCatV1.14B232,2013-04-04 06:52:00,
2013-04-04 00:57:00,30.3,16.1,30.20,WNW,296,0.0,2.0,55,0.00,,,0.00,0,WeatherCatV1.14B232,2013-04-04 06:57:00,
2013-04-04 01:02:00,30.0,15.8,30.20,WNW,296,0.0,0.0,55,0.00,,,0.00,0,WeatherCatV1.14B232,2013-04-04 07:02:00,
2013-04-04 01:07:00,30.0,15.8,30.20,WNW,284,7.0,13.0,55,0.00,,,0.00,0,WeatherCatV1.14B232,2013-04-04 07:07:00,
2013-04-04 01:12:00,31.9,16.3,30.20,NW,315,10.0,11.0,52,0.00,,,0.00,0,WeatherCatV1.14B232,2013-04-04 07:12:00,
2013-04-04 01:17:00,32.5,16.0,30.20,WNW,299,2.0,3.0,50,0.00,,,0.00,0,WeatherCatV1.14B232,2013-04-04 07:17:00,
2013-04-04 01:22:00,32.4,16.3,30.20,WNW,302,6.0,8.0,51,0.00,,,0.00,0,WeatherCatV1.14B232,2013-04-04 07:22:00,
2013-04-04 01:27:00,32.5,16.4,30.20,WNW,295,4.0,7.0,51,0.00,,,0.00,0,WeatherCatV1.14B232,2013-04-04 07:27:00,
2013-04-04 01:32:00,32.4,15.9,30.20,WNW,298,2.0,5.0,50,0.00,,,0.00,0,WeatherCatV1.14B232,2013-04-04 07:32:00,
2013-04-04 01:37:00,31.8,16.2,30.20,North,6,3.0,5.0,52,0.00,,,0.00,0,WeatherCatV1.14B232,2013-04-04 07:37:00,
2013-04-04 01:42:00,31.0,15.9,30.20,North,6,2.0,3.0,53,0.00,,,0.00,0,WeatherCatV1.14B232,2013-04-04 07:42:00,
2013-04-04 01:47:00,30.6,16.0,30.20,North,6,0.0,0.0,54,0.00,,,0.00,0,WeatherCatV1.14B232,2013-04-04 07:47:00,
2013-04-04 01:52:00,30.1,16.3,30.20,North,6,0.0,0.0,56,0.00,,,0.00,0,WeatherCatV1.14B232,2013-04-04 07:52:00,
2013-04-04 01:57:00,29.7,15.9,30.20,North,6,0.0,3.0,56,0.00,,,0.00,0,WeatherCatV1.14B232,2013-04-04 07:57:00,
2013-04-04 02:02:00,29.3,16.0,30.20,North,6,2.0,3.0,57,0.00,,,0.00,0,WeatherCatV1.14B232,2013-04-04 08:02:00,
2013-04-04 02:07:00,29.0,16.1,30.20,North,6,3.0,3.0,58,0.00,,,0.00,0,WeatherCatV1.14B232,2013-04-04 08:07:00,
2013-04-04 02:12:00,28.8,16.3,30.20,North,6,0.0,3.0,59,0.00,,,0.00,0,WeatherCatV1.14B232,2013-04-04 08:12:00,
2013-04-04 02:17:00,28.7,16.2,30.20,North,6,3.0,3.0,59,0.00,,,0.00,0,WeatherCatV1.14B232,2013-04-04 08:17:00,
2013-04-04 02:22:00,28.8,15.9,30.20,North,6,3.0,7.0,58,0.00,,,0.00,0,WeatherCatV1.14B232,2013-04-04 08:22:00,
2013-04-04 02:27:00,29.0,16.1,30.20,North,6,0.0,4.0,58,0.00,,,0.00,0,WeatherCatV1.14B232,2013-04-04 08:27:00,
2013-04-04 02:32:00,29.1,15.4,30.20,North,6,0.0,0.0,56,0.00,,,0.00,0,WeatherCatV1.14B232,2013-04-04 08:32:00,
2013-04-04 02:37:00,29.4,16.1,30.20,North,6,0.0,0.0,57,0.00,,,0.00,0,WeatherCatV1.14B232,2013-04-04 08:37:00,
2013-04-04 02:42:00,29.4,15.7,30.20,North,6,4.0,5.0,56,0.00,,,0.00,0,WeatherCatV1.14B232,2013-04-04 08:42:00,
2013-04-04 02:47:00,29.5,15.8,30.20,North,6,0.0,3.0,56,0.00,,,0.00,0,WeatherCatV1.14B232,2013-04-04 08:47:00,
2013-04-04 02:52:00,29.7,15.9,30.20,North,6,0.0,0.0,56,0.00,,,0.00,0,WeatherCatV1.14B232,2013-04-04 08:52:00,
2013-04-04 02:57:00,29.7,15.5,30.20,North,6,0.0,0.0,55,0.00,,,0.00,0,WeatherCatV1.14B232,2013-04-04 08:57:00,
2013-04-04 03:02:00,29.3,16.0,30.20,North,6,0.0,0.0,57,0.00,,,0.00,0,WeatherCatV1.14B232,2013-04-04 09:02:00,
2013-04-04 03:07:00,29.0,16.1,30.20,North,6,2.0,4.0,58,0.00,,,0.00,0,WeatherCatV1.14B232,2013-04-04 09:07:00,
2013-04-04 03:12:00,28.7,15.8,30.20,North,6,3.0,4.0,58,0.00,,,0.00,0,WeatherCatV1.14B232,2013-04-04 09:12:00,
2013-04-04 03:17:00,28.4,15.9,30.20,North,6,0.0,0.0,59,0.00,,,0.00,0,WeatherCatV1.14B232,2013-04-04 09:17:00,
2013-04-04 03:22:00,28.1,16.0,30.20,North,6,2.0,2.0,60,0.00,,,0.00,0,WeatherCatV1.14B232,2013-04-04 09:22:00,
2013-04-04 03:27:00,27.9,15.8,30.20,North,357,3.0,6.0,60,0.00,,,0.00,0,WeatherCatV1.14B232,2013-04-04 09:27:00,
2013-04-04 03:32:00,28.1,16.0,30.20,North,356,2.0,5.0,60,0.00,,,0.00,0,WeatherCatV1.14B232,2013-04-04 09:32:00,
2013-04-04 03:37:00,28.1,16.0,30.20,North,354,2.0,3.0,60,0.00,,,0.00,0,WeatherCatV1.14B232,2013-04-04 09:37:00,
2013-04-04 03:42:00,27.9,15.8,30.20,North,0,5.0,5.0,60,0.00,,,0.00,0,WeatherCatV1.14B232,2013-04-04 09:42:00,
2013-04-04 03:47:00,28.1,16.0,30.20,North,356,1.0,3.0,60,0.00,,,0.00,0,WeatherCatV1.14B232,2013-04-04 09:47:00,
2013-04-04 03:52:00,28.1,16.4,30.20,North,0,3.0,3.0,61,0.00,,,0.00,0,WeatherCatV1.14B232,2013-04-04 09:52:00,
2013-04-04 03:57:00,28.1,16.0,30.20,North,0,0.0,0.0,60,0.00,,,0.00,0,WeatherCatV1.14B232,2013-04-04 09:57:00,
2013-04-04 04:02:00,28.4,15.9,30.21,North,354,0.0,1.0,59,0.00,,,0.00,0,WeatherCatV1.14B232,2013-04-04 10:02:00,
2013-04-04 04:07:00,29.1,16.2,30.21,North,0,0.0,0.0,58,0.00,,,0.00,0,WeatherCatV1.14B232,2013-04-04 10:07:00,
2013-04-04 04:12:00,29.5,16.2,30.21,North,0,0.0,0.0,57,0.00,,,0.00,0,WeatherCatV1.14B232,2013-04-04 10:12:00,
2013-04-04 04:17:00,29.4,16.1,30.21,North,356,2.0,2.0,57,0.00,,,0.00,0,WeatherCatV1.14B232,2013-04-04 10:17:00,
2013-04-04 04:22:00,29.4,16.5,30.21,North,0,0.0,1.0,58,0.00,,,0.00,0,WeatherCatV1.14B232,2013-04-04 10:22:00,
2013-04-04 04:27:00,29.4,16.5,30.21,North,359,3.0,3.0,58,0.00,,,0.00,0,WeatherCatV1.14B232,2013-04-04 10:27:00,
2013-04-04 04:32:00,29.3,16.4,30.21,NW,319,0.0,0.0,58,0.00,,,0.00,0,WeatherCatV1.14B232,2013-04-04 10:32:00,
2013-04-04 04:37:00,29.3,16.4,30.21,NW,319,0.0,0.0,58,0.00,,,0.00,0,WeatherCatV1.14B232,2013-04-04 10:37:00,
2013-04-04 04:42:00,29.5,16.2,30.21,NNW,339,2.0,6.0,57,0.00,,,0.00,0,WeatherCatV1.14B232,2013-04-04 10:42:00,
2013-04-04 04:47:00,30.1,16.3,30.22,NW,313,3.0,9.0,56,0.00,,,0.00,0,WeatherCatV1.14B232,2013-04-04 10:47:00,
2013-04-04 04:52:00,30.6,16.4,30.22,NNW,346,7.0,7.0,55,0.00,,,0.00,0,WeatherCatV1.14B232,2013-04-04 10:52:00,
2013-04-04 04:57:00,30.7,16.5,30.22,NNW,347,3.0,7.0,55,0.00,,,0.00,0,WeatherCatV1.14B232,2013-04-04 10:57:00,
2013-04-04 05:02:00,31.0,16.3,30.21,NNW,339,3.0,6.0,54,0.00,,,0.00,0,WeatherCatV1.14B232,2013-04-04 11:02:00,
2013-04-04 05:07:00,30.7,16.5,30.21,NNW,339,0.0,0.0,55,0.00,,,0.00,0,WeatherCatV1.14B232,2013-04-04 11:07:00,
2013-04-04 05:12:00,30.3,16.1,30.21,NW,325,7.0,11.0,55,0.00,,,0.00,0,WeatherCatV1.14B232,2013-04-04 11:12:00,
2013-04-04 05:17:00,30.9,15.8,30.21,NW,315,6.0,10.0,53,0.00,,,0.00,0,WeatherCatV1.14B232,2013-04-04 11:17:00,
2013-04-04 05:22:00,31.5,16.4,30.21,NW,319,8.0,9.0,53,0.00,,,0.00,0,WeatherCatV1.14B232,2013-04-04 11:22:00,
2013-04-04 05:27:00,31.2,16.1,30.21,NNW,343,5.0,7.0,53,0.00,,,0.00,0,WeatherCatV1.14B232,2013-04-04 11:27:00,
2013-04-04 05:32:00,30.4,16.2,30.21,SSE,154,4.0,8.0,55,0.00,,,0.00,0,WeatherCatV1.14B232,2013-04-04 11:32:00,
2013-04-04 05:37:00,30.6,16.8,30.21,WSW,237,0.0,1.0,56,0.00,,,0.00,0,WeatherCatV1.14B232,2013-04-04 11:37:00,
2013-04-04 05:42:00,29.8,16.4,30.21,SW,229,3.0,5.0,57,0.00,,,0.00,0,WeatherCatV1.14B232,2013-04-04 11:42:00,
2013-04-04 05:47:00,28.5,16.4,30.21,SW,230,0.0,0.0,60,0.00,,,0.00,0,WeatherCatV1.14B232,2013-04-04 11:47:00,
2013-04-04 05:52:00,27.9,15.8,30.21,SW,229,0.0,0.0,60,0.00,,,0.00,0,WeatherCatV1.14B232,2013-04-04 11:52:00,
2013-04-04 05:57:00,28.1,16.4,30.21,SW,229,2.0,5.0,61,0.00,,,0.00,0,WeatherCatV1.14B232,2013-04-04 11:57:00,
2013-04-04 06:02:00,27.5,16.2,30.22,WNW,299,3.0,5.0,62,0.00,,,0.00,0,WeatherCatV1.14B232,2013-04-04 12:02:00,
2013-04-04 06:07:00,27.3,16.0,30.22,WNW,299,1.0,5.0,62,0.00,,,0.00,0,WeatherCatV1.14B232,2013-04-04 12:07:00,
2013-04-04 06:12:00,27.5,15.8,30.22,WNW,299,0.0,0.0,61,0.00,,,0.00,0,WeatherCatV1.14B232,2013-04-04 12:12:00,
2013-04-04 06:17:00,27.3,16.0,30.21,WNW,299,1.0,3.0,62,0.00,,,0.00,0,WeatherCatV1.14B232,2013-04-04 12:17:00,
2013-04-04 06:22:00,27.2,16.3,30.21,WNW,299,0.0,0.0,63,0.00,,,0.00,0,WeatherCatV1.14B232,2013-04-04 12:22:00,
2013-04-04 06:27:00,27.2,16.3,30.21,WNW,299,0.0,0.0,63,0.00,,,0.00,0,WeatherCatV1.14B232,2013-04-04 12:27:00,
2013-04-04 06:32:00,27.0,16.1,30.22,WNW,299,3.0,5.0,63,0.00,,,0.00,0,WeatherCatV1.14B232,2013-04-04 12:32:00,
2013-04-04 06:37:00,27.0,16.1,30.22,WNW,299,0.0,0.0,63,0.00,,,0.00,0,WeatherCatV1.14B232,2013-04-04 12:37:00,
2013-04-04 06:42:00,26.7,16.2,30.22,WNW,299,0.0,0.0,64,0.00,,,0.00,5,WeatherCatV1.14B232,2013-04-04 12:42:00,
2013-04-04 06:47:00,26.7,16.2,30.22,WNW,299,0.0,0.0,64,0.00,,,0.00,5,WeatherCatV1.14B232,2013-04-04 12:47:00,
2013-04-04 06:52:00,27.0,16.1,30.22,WNW,299,0.0,0.0,63,0.00,,,0.00,11,WeatherCatV1.14B232,2013-04-04 12:52:00,
2013-04-04 06:57:00,27.0,16.5,30.22,NNW,329,3.0,3.0,64,0.00,,,0.00,12,WeatherCatV1.14B232,2013-04-04 12:57:00,
2013-04-04 07:02:00,26.6,16.8,30.22,NNW,329,5.0,6.0,66,0.00,,,0.00,16,WeatherCatV1.14B232,2013-04-04 13:02:00,
2013-04-04 07:07:00,26.4,17.0,30.22,NNW,329,2.0,4.0,67,0.00,,,0.00,18,WeatherCatV1.14B232,2013-04-04 13:07:00,
2013-04-04 07:12:00,26.4,17.3,30.22,NNW,329,0.0,2.0,68,0.00,,,0.00,19,WeatherCatV1.14B232,2013-04-04 13:12:00,
2013-04-04 07:17:00,26.4,17.0,30.22,NNW,329,0.0,0.0,67,0.00,,,0.00,21,WeatherCatV1.14B232,2013-04-04 13:17:00,
2013-04-04 07:22:00,26.6,17.1,30.22,NNW,329,0.0,3.0,67,0.00,,,0.00,84,WeatherCatV1.14B232,2013-04-04 13:22:00,
2013-04-04 07:27:00,27.5,17.3,30.22,NNW,329,0.0,0.0,65,0.00,,,0.00,109,WeatherCatV1.14B232,2013-04-04 13:27:00,
2013-04-04 07:32:00,28.4,17.8,30.23,NNW,329,2.0,3.0,64,0.00,,,0.00,113,WeatherCatV1.14B232,2013-04-04 13:32:00,
2013-04-04 07:37:00,29.4,18.4,30.23,NNW,329,0.0,0.0,63,0.00,,,0.00,141,WeatherCatV1.14B232,2013-04-04 13:37:00,
2013-04-04 07:42:00,30.4,19.3,30.23,NNW,329,0.0,0.0,63,0.00,,,0.00,157,WeatherCatV1.14B232,2013-04-04 13:42:00,
2013-04-04 07:47:00,31.0,19.1,30.23,NNW,329,0.0,0.0,61,0.00,,,0.00,190,WeatherCatV1.14B232,2013-04-04 13:47:00,
2013-04-04 07:52:00,32.2,19.5,30.23,NNW,329,0.0,0.0,59,0.00,,,0.00,150,WeatherCatV1.14B232,2013-04-04 13:52:00,
2013-04-04 07:57:00,32.9,18.9,30.23,NNW,329,0.0,0.0,56,0.00,,,0.00,211,WeatherCatV1.14B232,2013-04-04 13:57:00,
2013-04-04 08:02:00,34.1,19.2,30.23,NNW,329,0.0,0.0,54,0.00,,,0.00,252,WeatherCatV1.14B232,2013-04-04 14:02:00,
2013-04-04 08:07:00,35.8,19.0,30.23,NNW,329,0.0,0.0,50,0.00,,,0.00,271,WeatherCatV1.14B232,2013-04-04 14:07:00,
2013-04-04 08:12:00,37.0,20.1,30.23,NNW,329,0.0,0.0,50,0.00,,,0.00,290,WeatherCatV1.14B232,2013-04-04 14:12:00,
2013-04-04 08:17:00,37.9,19.5,30.23,NNW,329,0.0,0.0,47,0.00,,,0.00,310,WeatherCatV1.14B232,2013-04-04 14:17:00,
2013-04-04 08:22:00,38.5,19.0,30.23,NNW,329,0.0,0.0,45,0.00,,,0.00,329,WeatherCatV1.14B232,2013-04-04 14:22:00,
2013-04-04 08:27:00,39.3,18.1,30.23,NNW,329,0.0,0.0,42,0.00,,,0.00,350,WeatherCatV1.14B232,2013-04-04 14:27:00,
2013-04-04 08:32:00,40.6,18.8,30.23,NNW,329,0.0,0.0,41,0.00,,,0.00,362,WeatherCatV1.14B232,2013-04-04 14:32:00,
2013-04-04 08:37:00,41.8,19.3,30.23,NNW,329,0.0,1.0,40,0.00,,,0.00,380,WeatherCatV1.14B232,2013-04-04 14:37:00,
2013-04-04 08:42:00,42.5,18.1,30.23,NNW,329,0.0,1.0,37,0.00,,,0.00,398,WeatherCatV1.14B232,2013-04-04 14:42:00,
2013-04-04 08:47:00,43.1,17.3,30.23,NNW,329,0.0,0.0,35,0.00,,,0.00,417,WeatherCatV1.14B232,2013-04-04 14:47:00,
2013-04-04 08:52:00,43.2,18.1,30.23,NNW,329,1.0,1.0,36,0.00,,,0.00,449,WeatherCatV1.14B232,2013-04-04 14:52:00,
2013-04-04 08:57:00,42.9,19.7,30.23,WNW,285,3.0,5.0,39,0.00,,,0.00,470,WeatherCatV1.14B232,2013-04-04 14:57:00,
2013-04-04 09:02:00,43.3,18.8,30.23,South,175,5.0,6.0,37,0.00,,,0.00,491,WeatherCatV1.14B232,2013-04-04 15:02:00,
2013-04-04 09:07:00,43.8,18.0,30.23,SSE,157,5.0,5.0,35,0.00,,,0.00,507,WeatherCatV1.14B232,2013-04-04 15:07:00,
2013-04-04 09:12:00,44.1,18.9,30.23,SE,134,4.0,7.0,36,0.00,,,0.00,512,WeatherCatV1.14B232,2013-04-04 15:12:00,
2013-04-04 09:17:00,44.3,19.7,30.22,SE,144,4.0,8.0,37,0.00,,,0.00,538,WeatherCatV1.14B232,2013-04-04 15:17:00,
2013-04-04 09:22:00,44.2,19.0,30.22,SE,140,6.0,7.0,36,0.00,,,0.00,484,WeatherCatV1.14B232,2013-04-04 15:22:00,
2013-04-04 09:27:00,44.1,18.9,30.22,ESE,106,7.0,8.0,36,0.00,,,0.00,512,WeatherCatV1.14B232,2013-04-04 15:27:00,
2013-04-04 09:32:00,44.1,18.2,30.22,ESE,114,1.0,7.0,35,0.00,,,0.00,524,WeatherCatV1.14B232,2013-04-04 15:32:00,
2013-04-04 09:37:00,44.3,18.4,30.22,SE,124,8.0,8.0,35,0.00,,,0.00,523,WeatherCatV1.14B232,2013-04-04 15:37:00,
2013-04-04 09:42:00,44.6,18.0,30.22,ESE,119,6.0,7.0,34,0.00,,,0.00,593,WeatherCatV1.14B232,2013-04-04 15:42:00,
2013-04-04 09:47:00,45.2,17.1,30.22,ESE,116,2.0,7.0,32,0.00,,,0.00,596,WeatherCatV1.14B232,2013-04-04 15:47:00,
2013-04-04 09:52:00,46.0,18.5,30.22,ESE,117,5.0,8.0,33,0.00,,,0.00,651,WeatherCatV1.14B232,2013-04-04 15:52:00,
2013-04-04 09:57:00,46.1,19.3,30.22,ESE,109,5.0,8.0,34,0.00,,,0.00,704,WeatherCatV1.14B232,2013-04-04 15:57:00,
2013-04-04 10:02:00,45.8,18.4,30.22,ESE,110,6.0,7.0,33,0.00,,,0.00,431,WeatherCatV1.14B232,2013-04-04 16:02:00,
2013-04-04 10:07:00,46.2,18.7,30.22,SE,124,5.0,9.0,33,0.00,,,0.00,655,WeatherCatV1.14B232,2013-04-04 16:07:00,
2013-04-04 10:12:00,47.0,18.7,30.22,SE,126,1.0,7.0,32,0.00,,,0.00,686,WeatherCatV1.14B232,2013-04-04 16:12:00,
2013-04-04 10:17:00,47.4,18.3,30.22,ESE,120,5.0,11.0,31,0.00,,,0.00,691,WeatherCatV1.14B232,2013-04-04 16:17:00,
2013-04-04 10:22:00,47.6,18.5,30.22,ESE,112,7.0,11.0,31,0.00,,,0.00,707,WeatherCatV1.14B232,2013-04-04 16:22:00,
2013-04-04 10:27:00,48.0,18.1,30.22,ESE,103,2.0,7.0,30,0.00,,,0.00,718,WeatherCatV1.14B232,2013-04-04 16:27:00,
2013-04-04 10:32:00,48.6,19.3,30.22,ESE,121,7.0,9.0,31,0.00,,,0.00,732,WeatherCatV1.14B232,2013-04-04 16:32:00,
2013-04-04 10:37:00,48.6,18.6,30.22,East,100,6.0,10.0,30,0.00,,,0.00,734,WeatherCatV1.14B232,2013-04-04 16:37:00,
2013-04-04 10:42:00,49.1,19.0,30.22,ESE,113,2.0,6.0,30,0.00,,,0.00,640,WeatherCatV1.14B232,2013-04-04 16:42:00,
2013-04-04 10:47:00,49.9,18.1,30.22,SE,124,6.0,11.0,28,0.00,,,0.00,765,WeatherCatV1.14B232,2013-04-04 16:47:00,
2013-04-04 10:52:00,50.4,18.5,30.22,ESE,123,8.0,12.0,28,0.00,,,0.00,778,WeatherCatV1.14B232,2013-04-04 16:52:00,
2013-04-04 10:57:00,50.5,17.8,30.22,ENE,76,6.0,7.0,27,0.00,,,0.00,787,WeatherCatV1.14B232,2013-04-04 16:57:00,
2013-04-04 11:02:00,51.0,17.3,30.22,ENE,65,0.0,7.0,26,0.00,,,0.00,797,WeatherCatV1.14B232,2013-04-04 17:02:00,
2013-04-04 11:07:00,51.6,19.6,30.22,SE,130,6.0,10.0,28,0.00,,,0.00,806,WeatherCatV1.14B232,2013-04-04 17:07:00,
2013-04-04 11:12:00,51.4,16.8,30.22,East,88,5.0,8.0,25,0.00,,,0.00,816,WeatherCatV1.14B232,2013-04-04 17:12:00,
2013-04-04 11:17:00,51.6,16.9,30.21,ESE,106,3.0,3.0,25,0.00,,,0.00,827,WeatherCatV1.14B232,2013-04-04 17:17:00,
2013-04-04 11:22:00,51.6,16.9,30.21,South,181,0.0,3.0,25,0.00,,,0.00,830,WeatherCatV1.14B232,2013-04-04 17:22:00,
2013-04-04 11:27:00,51.9,17.2,30.21,West,265,13.0,16.0,25,0.00,,,0.00,843,WeatherCatV1.14B232,2013-04-04 17:27:00,
2013-04-04 11:32:00,52.0,17.3,30.21,WSW,241,12.0,14.0,25,0.00,,,0.00,852,WeatherCatV1.14B232,2013-04-04 17:32:00,
2013-04-04 11:37:00,52.2,16.5,30.21,West,265,5.0,19.0,24,0.00,,,0.00,862,WeatherCatV1.14B232,2013-04-04 17:37:00,
2013-04-04 11:42:00,52.2,17.5,30.21,SE,124,8.0,11.0,25,0.00,,,0.00,869,WeatherCatV1.14B232,2013-04-04 17:42:00,
2013-04-04 11:47:00,52.6,15.9,30.21,South,175,6.0,18.0,23,0.00,,,0.00,871,WeatherCatV1.14B232,2013-04-04 17:47:00,
2013-04-04 11:52:00,52.6,17.8,30.21,South,181,7.0,16.0,25,0.00,,,0.00,880,WeatherCatV1.14B232,2013-04-04 17:52:00,
2013-04-04 11:57:00,52.6,16.9,30.21,WSW,254,13.0,24.0,24,0.00,,,0.00,887,WeatherCatV1.14B232,2013-04-04 17:57:00,
2013-04-04 12:02:00,52.0,16.3,30.20,SSW,209,0.0,8.0,24,0.00,,,0.00,890,WeatherCatV1.14B232,2013-04-04 18:02:00,
2013-04-04 12:07:00,52.6,16.9,30.20,NW,305,5.0,10.0,24,0.00,,,0.00,894,WeatherCatV1.14B232,2013-04-04 18:07:00,
2013-04-04 12:12:00,53.1,17.3,30.20,NW,315,12.0,19.0,24,0.00,,,0.00,899,WeatherCatV1.14B232,2013-04-04 18:12:00,
2013-04-04 12:17:00,53.3,17.4,30.20,WSW,251,8.0,16.0,24,0.00,,,0.00,903,WeatherCatV1.14B232,2013-04-04 18:17:00,
2013-04-04 12:22:00,53.3,17.4,30.20,WNW,292,7.0,17.0,24,0.00,,,0.00,910,WeatherCatV1.14B232,2013-04-04 18:22:00,
2013-04-04 12:27:00,52.8,17.0,30.20,West,260,9.0,25.0,24,0.00,,,0.00,913,WeatherCatV1.14B232,2013-04-04 18:27:00,
2013-04-04 12:32:00,53.2,17.4,30.19,SSW,199,16.0,17.0,24,0.00,,,0.00,915,WeatherCatV1.14B232,2013-04-04 18:32:00,
2013-04-04 12:37:00,53.9,17.0,30.19,WNW,296,18.0,25.0,23,0.00,,,0.00,918,WeatherCatV1.14B232,2013-04-04 18:37:00,
2013-04-04 12:42:00,53.6,16.7,30.19,WNW,296,10.0,17.0,23,0.00,,,0.00,920,WeatherCatV1.14B232,2013-04-04 18:42:00,
2013-04-04 12:47:00,53.8,17.9,30.19,West,261,15.0,18.0,24,0.00,,,0.00,920,WeatherCatV1.14B232,2013-04-04 18:47:00,
2013-04-04 12:52:00,54.2,17.2,30.19,SW,234,7.0,17.0,23,0.00,,,0.00,924,WeatherCatV1.14B232,2013-04-04 18:52:00,
2013-04-04 12:57:00,53.9,18.0,30.19,WNW,289,2.0,19.0,24,0.00,,,0.00,922,WeatherCatV1.14B232,2013-04-04 18:57:00,
2013-04-04 13:02:00,54.5,17.5,30.18,NW,318,13.0,21.0,23,0.00,,,0.00,926,WeatherCatV1.14B232,2013-04-04 19:02:00,
2013-04-04 13:07:00,54.1,17.1,30.18,SSW,205,9.0,33.0,23,0.00,,,0.00,924,WeatherCatV1.14B232,2013-04-04 19:07:00,
2013-04-04 13:12:00,53.9,18.0,30.18,West,263,3.0,26.0,24,0.00,,,0.00,924,WeatherCatV1.14B232,2013-04-04 19:12:00,
2013-04-04 13:17:00,53.9,17.0,30.18,SSW,206,12.0,19.0,23,0.00,,,0.00,922,WeatherCatV1.14B232,2013-04-04 19:17:00,
2013-04-04 13:22:00,54.4,16.4,30.18,WNW,287,17.0,24.0,22,0.00,,,0.00,918,WeatherCatV1.14B232,2013-04-04 19:22:00,
2013-04-04 13:27:00,54.2,17.2,30.18,WSW,258,7.0,20.0,23,0.00,,,0.00,918,WeatherCatV1.14B232,2013-04-04 19:27:00,
2013-04-04 13:32:00,54.7,16.6,30.17,SSW,213,4.0,20.0,22,0.00,,,0.00,917,WeatherCatV1.14B232,2013-04-04 19:32:00,
2013-04-04 13:37:00,54.8,16.7,30.17,SSW,209,14.0,21.0,22,0.00,,,0.00,913,WeatherCatV1.14B232,2013-04-04 19:37:00,
2013-04-04 13:42:00,55.0,16.9,30.17,West,277,10.0,27.0,22,0.00,,,0.00,911,WeatherCatV1.14B232,2013-04-04 19:42:00,
2013-04-04 13:47:00,54.8,17.7,30.17,WSW,250,18.0,25.0,23,0.00,,,0.00,906,WeatherCatV1.14B232,2013-04-04 19:47:00,
2013-04-04 13:52:00,55.0,15.8,30.17,SSW,203,13.0,24.0,21,0.00,,,0.00,903,WeatherCatV1.14B232,2013-04-04 19:52:00,
2013-04-04 13:57:00,55.1,17.0,30.17,SSW,206,11.0,18.0,22,0.00,,,0.00,897,WeatherCatV1.14B232,2013-04-04 19:57:00,
2013-04-04 14:02:00,55.1,18.0,30.17,WSW,251,17.0,19.0,23,0.00,,,0.00,892,WeatherCatV1.14B232,2013-04-04 20:02:00,
2013-04-04 14:07:00,56.0,16.6,30.17,WSW,240,10.0,21.0,21,0.00,,,0.00,889,WeatherCatV1.14B232,2013-04-04 20:07:00,
2013-04-04 14:12:00,55.7,17.5,30.17,SW,234,13.0,19.0,22,0.00,,,0.00,885,WeatherCatV1.14B232,2013-04-04 20:12:00,
2013-04-04 14:17:00,55.7,17.5,30.17,SSW,193,20.0,24.0,22,0.00,,,0.00,878,WeatherCatV1.14B232,2013-04-04 20:17:00,
2013-04-04 14:22:00,56.0,17.7,30.17,WSW,251,9.0,14.0,22,0.00,,,0.00,869,WeatherCatV1.14B232,2013-04-04 20:22:00,
2013-04-04 14:27:00,56.5,17.0,30.17,SW,236,4.0,16.0,21,0.00,,,0.00,864,WeatherCatV1.14B232,2013-04-04 20:27:00,
2013-04-04 14:32:00,56.7,17.2,30.16,SW,224,6.0,13.0,21,0.00,,,0.00,855,WeatherCatV1.14B232,2013-04-04 20:32:00,
2013-04-04 14:37:00,57.0,17.5,30.16,WNW,282,3.0,18.0,21,0.00,,,0.00,852,WeatherCatV1.14B232,2013-04-04 20:37:00,
2013-04-04 14:42:00,57.2,17.6,30.16,WSW,256,11.0,17.0,21,0.00,,,0.00,839,WeatherCatV1.14B232,2013-04-04 20:42:00,
2013-04-04 14:47:00,57.3,16.6,30.16,SW,224,10.0,14.0,20,0.00,,,0.00,832,WeatherCatV1.14B232,2013-04-04 20:47:00,
2013-04-04 14:52:00,57.5,17.9,30.16,WNW,298,12.0,13.0,21,0.00,,,0.00,822,WeatherCatV1.14B232,2013-04-04 20:52:00,
2013-04-04 14:57:00,57.2,16.5,30.16,South,186,12.0,14.0,20,0.00,,,0.00,813,WeatherCatV1.14B232,2013-04-04 20:57:00,
2013-04-04 15:02:00,56.7,17.2,30.16,South,185,16.0,16.0,21,0.00,,,0.00,802,WeatherCatV1.14B232,2013-04-04 21:02:00,
2013-04-04 15:07:00,56.2,17.9,30.16,West,271,18.0,19.0,22,0.00,,,0.00,792,WeatherCatV1.14B232,2013-04-04 21:07:00,
2013-04-04 15:12:00,56.2,17.9,30.16,WSW,240,6.0,21.0,22,0.00,,,0.00,779,WeatherCatV1.14B232,2013-04-04 21:12:00,
2013-04-04 15:17:00,56.3,18.0,30.15,West,267,5.0,21.0,22,0.00,,,0.00,772,WeatherCatV1.14B232,2013-04-04 21:17:00,
2013-04-04 15:22:00,56.9,17.4,30.15,West,270,22.0,25.0,21,0.00,,,0.00,757,WeatherCatV1.14B232,2013-04-04 21:22:00,
2013-04-04 15:27:00,56.7,16.1,30.15,West,278,16.0,22.0,20,0.00,,,0.00,750,WeatherCatV1.14B232,2013-04-04 21:27:00,
2013-04-04 15:32:00,56.3,16.9,30.15,West,280,9.0,21.0,21,0.00,,,0.00,730,WeatherCatV1.14B232,2013-04-04 21:32:00,
2013-04-04 15:37:00,56.5,17.0,30.15,West,280,10.0,18.0,21,0.00,,,0.00,721,WeatherCatV1.14B232,2013-04-04 21:37:00,
2013-04-04 15:42:00,56.6,16.0,30.15,WSW,250,11.0,22.0,20,0.00,,,0.00,709,WeatherCatV1.14B232,2013-04-04 21:42:00,
2013-04-04 15:47:00,56.6,16.0,30.15,WSW,241,2.0,14.0,20,0.00,,,0.00,693,WeatherCatV1.14B232,2013-04-04 21:47:00,
2013-04-04 15:52:00,57.5,16.8,30.15,SW,229,10.0,22.0,20,0.00,,,0.00,679,WeatherCatV1.14B232,2013-04-04 21:52:00,
2013-04-04 15:57:00,57.6,16.8,30.15,SSW,212,8.0,21.0,20,0.00,,,0.00,672,WeatherCatV1.14B232,2013-04-04 21:57:00,
2013-04-04 16:02:00,57.5,16.8,30.15,WNW,287,10.0,19.0,20,0.00,,,0.00,658,WeatherCatV1.14B232,2013-04-04 22:02:00,
2013-04-04 16:07:00,57.8,17.0,30.15,WSW,256,12.0,21.0,20,0.00,,,0.00,637,WeatherCatV1.14B232,2013-04-04 22:07:00,
2013-04-04 16:12:00,57.5,15.6,30.15,West,264,12.0,20.0,19,0.00,,,0.00,609,WeatherCatV1.14B232,2013-04-04 22:12:00,
2013-04-04 16:17:00,57.6,15.7,30.14,SSW,205,11.0,18.0,19,0.00,,,0.00,596,WeatherCatV1.14B232,2013-04-04 22:17:00,
2013-04-04 16:22:00,57.8,15.8,30.14,WNW,289,16.0,16.0,19,0.00,,,0.00,593,WeatherCatV1.14B232,2013-04-04 22:22:00,
2013-04-04 16:27:00,58.1,16.1,30.14,WSW,254,10.0,17.0,19,0.00,,,0.00,575,WeatherCatV1.14B232,2013-04-04 22:27:00,
2013-04-04 16:32:00,58.0,14.8,30.14,WNW,288,8.0,20.0,18,0.00,,,0.00,567,WeatherCatV1.14B232,2013-04-04 22:32:00,
2013-04-04 16:37:00,58.1,14.8,30.14,WSW,257,15.0,15.0,18,0.00,,,0.00,544,WeatherCatV1.14B232,2013-04-04 22:37:00,
2013-04-04 16:42:00,58.0,14.8,30.14,South,184,14.0,20.0,18,0.00,,,0.00,524,WeatherCatV1.14B232,2013-04-04 22:42:00,
2013-04-04 16:47:00,57.2,15.3,30.14,West,268,9.0,19.0,19,0.00,,,0.00,436,WeatherCatV1.14B232,2013-04-04 22:47:00,
2013-04-04 16:52:00,56.9,15.1,30.14,SSW,213,10.0,21.0,19,0.00,,,0.00,385,WeatherCatV1.14B232,2013-04-04 22:52:00,
2013-04-04 16:57:00,56.7,14.9,30.14,WSW,256,5.0,20.0,19,0.00,,,0.00,371,WeatherCatV1.14B232,2013-04-04 22:57:00,
2013-04-04 17:02:00,56.5,13.5,30.14,West,272,12.0,12.0,18,0.00,,,0.00,389,WeatherCatV1.14B232,2013-04-04 23:02:00,
2013-04-04 17:07:00,56.3,14.6,30.14,SW,233,8.0,18.0,19,0.00,,,0.00,385,WeatherCatV1.14B232,2013-04-04 23:07:00,
2013-04-04 17:12:00,56.5,13.5,30.14,SW,229,10.0,19.0,18,0.00,,,0.00,426,WeatherCatV1.14B232,2013-04-04 23:12:00,
2013-04-04 17:17:00,56.6,12.3,30.15,WSW,244,5.0,11.0,17,0.00,,,0.00,421,WeatherCatV1.14B232,2013-04-04 23:17:00,
2013-04-04 17:22:00,56.9,12.6,30.15,WSW,237,8.0,17.0,17,0.00,,,0.00,403,WeatherCatV1.14B232,2013-04-04 23:22:00,
2013-04-04 17:27:00,56.9,12.6,30.15,West,275,4.0,7.0,17,0.00,,,0.00,364,WeatherCatV1.14B232,2013-04-04 23:27:00,
2013-04-04 17:32:00,56.9,12.6,30.14,SSW,202,9.0,17.0,17,0.00,,,0.00,222,WeatherCatV1.14B232,2013-04-04 23:32:00,
2013-04-04 17:37:00,56.5,12.2,30.14,West,271,8.0,15.0,17,0.00,,,0.00,239,WeatherCatV1.14B232,2013-04-04 23:37:00,
2013-04-04 17:42:00,56.3,12.1,30.14,WNW,288,3.0,12.0,17,0.00,,,0.00,216,WeatherCatV1.14B232,2013-04-04 23:42:00,
2013-04-04 17:47:00,56.2,12.0,30.14,SW,215,13.0,14.0,17,0.00,,,0.00,172,WeatherCatV1.14B232,2013-04-04 23:47:00,
2013-04-04 17:52:00,55.4,12.6,30.14,SW,230,18.0,21.0,18,0.00,,,0.00,157,WeatherCatV1.14B232,2013-04-04 23:52:00,
2013-04-04 17:57:00,55.0,12.3,30.14,SW,233,9.0,16.0,18,0.00,,,0.00,167,WeatherCatV1.14B232,2013-04-04 23:57:00,
2013-04-04 18:02:00,55.0,12.3,30.14,SSW,205,7.0,7.0,18,0.00,,,0.00,174,WeatherCatV1.14B232,2013-04-05 00:02:00,
2013-04-04 18:07:00,55.0,13.5,30.14,SW,233,6.0,11.0,19,0.00,,,0.00,171,WeatherCatV1.14B232,2013-04-05 00:07:00,
2013-04-04 18:12:00,55.1,13.6,30.14,NW,313,8.0,12.0,19,0.00,,,0.00,169,WeatherCatV1.14B232,2013-04-05 00:12:00,
2013-04-04 18:17:00,55.1,13.6,30.14,WSW,240,5.0,8.0,19,0.00,,,0.00,179,WeatherCatV1.14B232,2013-04-05 00:17:00,
2013-04-04 18:22:00,55.1,13.6,30.14,WSW,251,0.0,7.0,19,0.00,,,0.00,164,WeatherCatV1.14B232,2013-04-05 00:22:00,
2013-04-04 18:27:00,55.3,13.8,30.14,West,268,0.0,7.0,19,0.00,,,0.00,137,WeatherCatV1.14B232,2013-04-05 00:27:00,
2013-04-04 18:32:00,55.1,12.4,30.14,West,261,8.0,16.0,18,0.00,,,0.00,113,WeatherCatV1.14B232,2013-04-05 00:32:00,
2013-04-04 18:37:00,54.7,13.3,30.14,WNW,302,5.0,8.0,19,0.00,,,0.00,104,WeatherCatV1.14B232,2013-04-05 00:37:00,
2013-04-04 18:42:00,54.4,13.0,30.14,WSW,253,10.0,18.0,19,0.00,,,0.00,109,WeatherCatV1.14B232,2013-04-05 00:42:00,
2013-04-04 18:47:00,54.4,13.0,30.14,WSW,250,4.0,8.0,19,0.00,,,0.00,100,WeatherCatV1.14B232,2013-04-05 00:47:00,
2013-04-04 18:52:00,54.4,13.0,30.14,WNW,287,10.0,12.0,19,0.00,,,0.00,79,WeatherCatV1.14B232,2013-04-05 00:52:00,
2013-04-04 18:57:00,53.9,13.8,30.14,West,270,11.0,11.0,20,0.00,,,0.00,62,WeatherCatV1.14B232,2013-04-05 00:57:00,
2013-04-04 19:02:00,53.6,13.5,30.14,WNW,291,5.0,13.0,20,0.00,,,0.00,51,WeatherCatV1.14B232,2013-04-05 01:02:00,
2013-04-04 19:07:00,53.5,14.5,30.14,West,272,9.0,16.0,21,0.00,,,0.00,44,WeatherCatV1.14B232,2013-04-05 01:07:00,
2013-04-04 19:12:00,53.3,14.4,30.14,WSW,244,3.0,7.0,21,0.00,,,0.00,37,WeatherCatV1.14B232,2013-04-05 01:12:00,
2013-04-04 19:17:00,53.1,13.1,30.14,West,277,10.0,16.0,20,0.00,,,0.00,30,WeatherCatV1.14B232,2013-04-05 01:17:00,
2013-04-04 19:22:00,52.8,14.0,30.14,NNW,333,8.0,14.0,21,0.00,,,0.00,21,WeatherCatV1.14B232,2013-04-05 01:22:00,
2013-04-04 19:27:00,52.6,13.8,30.14,WNW,301,5.0,12.0,21,0.00,,,0.00,12,WeatherCatV1.14B232,2013-04-05 01:27:00,
2013-04-04 19:32:00,52.2,13.5,30.14,WSW,247,8.0,17.0,21,0.00,,,0.00,5,WeatherCatV1.14B232,2013-04-05 01:32:00,
2013-04-04 19:37:00,52.2,13.5,30.14,West,270,11.0,13.0,21,0.00,,,0.00,0,WeatherCatV1.14B232,2013-04-05 01:37:00,
2013-04-04 19:42:00,52.0,13.3,30.14,NNW,337,3.0,12.0,21,0.00,,,0.00,0,WeatherCatV1.14B232,2013-04-05 01:42:00,
2013-04-04 19:47:00,51.7,13.0,30.14,NW,326,5.0,11.0,21,0.00,,,0.00,0,WeatherCatV1.14B232,2013-04-05 01:47:00,
2013-04-04 19:52:00,51.4,13.9,30.14,NW,304,7.0,11.0,22,0.00,,,0.00,0,WeatherCatV1.14B232,2013-04-05 01:52:00,
2013-04-04 19:57:00,51.0,13.5,30.14,North,354,6.0,7.0,22,0.00,,,0.00,0,WeatherCatV1.14B232,2013-04-05 01:57:00,
2013-04-04 20:02:00,50.4,14.0,30.14,NW,322,5.0,6.0,23,0.00,,,0.00,0,WeatherCatV1.14B232,2013-04-05 02:02:00,
2013-04-04 20:07:00,49.9,14.6,30.14,North,350,6.0,8.0,24,0.00,,,0.00,0,WeatherCatV1.14B232,2013-04-05 02:07:00,
2013-04-04 20:12:00,49.6,14.3,30.14,NNW,336,5.0,8.0,24,0.00,,,0.00,0,WeatherCatV1.14B232,2013-04-05 02:12:00,
2013-04-04 20:17:00,49.4,14.1,30.14,NW,312,5.0,12.0,24,0.00,,,0.00,0,WeatherCatV1.14B232,2013-04-05 02:17:00,
2013-04-04 20:22:00,49.5,14.2,30.14,NNW,335,5.0,7.0,24,0.00,,,0.00,0,WeatherCatV1.14B232,2013-04-05 02:22:00,
2013-04-04 20:27:00,49.4,14.1,30.14,NW,308,3.0,10.0,24,0.00,,,0.00,0,WeatherCatV1.14B232,2013-04-05 02:27:00,
2013-04-04 20:32:00,49.5,14.2,30.14,NW,311,5.0,15.0,24,0.00,,,0.00,0,WeatherCatV1.14B232,2013-04-05 02:32:00,
2013-04-04 20:37:00,49.4,14.1,30.14,NNW,335,7.0,10.0,24,0.00,,,0.00,0,WeatherCatV1.14B232,2013-04-05 02:37:00,
2013-04-04 20:42:00,49.2,14.0,30.14,NW,315,7.0,9.0,24,0.00,,,0.00,0,WeatherCatV1.14B232,2013-04-05 02:42:00,
2013-04-04 20:47:00,48.9,13.7,30.14,NNW,337,11.0,11.0,24,0.00,,,0.00,0,WeatherCatV1.14B232,2013-04-05 02:47:00,
2013-04-04 20:52:00,49.1,13.9,30.14,NW,325,3.0,13.0,24,0.00,,,0.00,0,WeatherCatV1.14B232,2013-04-05 02:52:00,
2013-04-04 20:57:00,48.9,14.6,30.14,NNW,340,6.0,7.0,25,0.00,,,0.00,0,WeatherCatV1.14B232,2013-04-05 02:57:00,
2013-04-04 21:02:00,48.8,14.6,30.15,NW,316,0.0,5.0,25,0.00,,,0.00,0,WeatherCatV1.14B232,2013-04-05 03:02:00,
2013-04-04 21:07:00,48.6,15.3,30.15,WNW,287,7.0,7.0,26,0.00,,,0.00,0,WeatherCatV1.14B232,2013-04-05 03:07:00,
2013-04-04 21:12:00,48.5,15.2,30.15,NNW,332,7.0,10.0,26,0.00,,,0.00,0,WeatherCatV1.14B232,2013-04-05 03:12:00,
2013-04-04 21:17:00,48.5,15.2,30.15,North,356,5.0,7.0,26,0.00,,,0.00,0,WeatherCatV1.14B232,2013-04-05 03:17:00,
2013-04-04 21:22:00,48.5,15.2,30.15,North,353,5.0,10.0,26,0.00,,,0.00,0,WeatherCatV1.14B232,2013-04-05 03:22:00,
2013-04-04 21:27:00,48.5,15.2,30.15,NW,318,9.0,14.0,26,0.00,,,0.00,0,WeatherCatV1.14B232,2013-04-05 03:27:00,
2013-04-04 21:32:00,48.5,15.2,30.15,WNW,301,8.0,11.0,26,0.00,,,0.00,0,WeatherCatV1.14B232,2013-04-05 03:32:00,
2013-04-04 21:35:00,48.6,15.3,30.15,NW,307,6.0,11.0,26,0.00,,,0.00,0,WeatherCatV1.14B232,2013-04-05 03:35:00,
2013-04-04 21:37:00,48.6,15.3,30.15,NNW,340,3.0,10.0,26,0.00,,,0.00,0,WeatherCatV1.14B232,2013-04-05 03:37:00,
2013-04-04 21:40:00,48.6,15.3,30.15,NW,307,6.0,11.0,26,0.00,,,0.00,0,WeatherCatV1.14B232,2013-04-05 03:40:00,
2013-04-04 21:45:00,48.8,15.5,30.15,NNW,338,5.0,18.0,26,0.00,,,0.00,0,WeatherCatV1.14B232,2013-04-05 03:45:00,
2013-04-04 21:50:00,48.8,15.5,30.15,NNW,338,5.0,18.0,26,0.00,,,0.00,0,WeatherCatV1.14B232,2013-04-05 03:50:00,
2013-04-04 21:55:00,48.8,15.5,30.15,NNW,338,5.0,18.0,26,0.00,,,0.00,0,WeatherCatV1.14B232,2013-04-05 03:55:00,
2013-04-04 22:00:00,48.6,16.1,30.15,NNW,338,4.0,16.0,27,0.00,,,0.00,0,WeatherCatV1.14B232,2013-04-05 04:00:00,
2013-04-04 22:05:00,48.6,16.1,30.15,NNW,338,4.0,16.0,27,0.00,,,0.00,0,WeatherCatV1.14B232,2013-04-05 04:05:00,
2013-04-04 22:10:00,48.6,16.1,30.15,NNW,338,4.0,16.0,27,0.00,,,0.00,0,WeatherCatV1.14B232,2013-04-05 04:10:00,
2013-04-04 22:15:00,48.6,16.1,30.16,WNW,292,4.0,17.0,27,0.00,,,0.00,0,WeatherCatV1.14B232,2013-04-05 04:15:00,
2013-04-04 22:20:00,48.6,16.1,30.16,WNW,292,4.0,17.0,27,0.00,,,0.00,0,WeatherCatV1.14B232,2013-04-05 04:20:00,
2013-04-04 22:25:00,48.6,16.1,30.16,WNW,292,4.0,17.0,27,0.00,,,0.00,0,WeatherCatV1.14B232,2013-04-05 04:25:00,
2013-04-04 22:30:00,48.6,16.1,30.16,WNW,292,4.0,17.0,27,0.00,,,0.00,0,WeatherCatV1.14B232,2013-04-05 04:30:00,
2013-04-04 22:35:00,47.6,16.1,30.16,WNW,292,1.0,6.0,28,0.00,,,0.00,0,WeatherCatV1.14B232,2013-04-05 04:35:00,
2013-04-04 22:40:00,47.6,16.1,30.16,WNW,292,1.0,6.0,28,0.00,,,0.00,0,WeatherCatV1.14B232,2013-04-05 04:40:00,
2013-04-04 22:45:00,47.6,16.1,30.16,WNW,292,1.0,6.0,28,0.00,,,0.00,0,WeatherCatV1.14B232,2013-04-05 04:45:00,
2013-04-04 22:50:00,46.2,15.7,30.16,WNW,292,1.0,6.0,29,0.00,,,0.00,0,WeatherCatV1.14B232,2013-04-05 04:50:00,
2013-04-04 22:55:00,46.2,15.7,30.16,WNW,292,1.0,6.0,29,0.00,,,0.00,0,WeatherCatV1.14B232,2013-04-05 04:55:00,
2013-04-04 23:00:00,46.2,15.7,30.16,WNW,292,1.0,6.0,29,0.00,,,0.00,0,WeatherCatV1.14B232,2013-04-05 05:00:00,
2013-04-04 23:05:00,46.0,16.3,30.16,West,270,1.0,7.0,30,0.00,,,0.00,0,WeatherCatV1.14B232,2013-04-05 05:05:00,
2013-04-04 23:10:00,46.0,16.3,30.16,West,270,1.0,7.0,30,0.00,,,0.00,0,WeatherCatV1.14B232,2013-04-05 05:10:00,
2013-04-04 23:15:00,46.0,16.3,30.16,West,270,1.0,7.0,30,0.00,,,0.00,0,WeatherCatV1.14B232,2013-04-05 05:15:00,
2013-04-04 23:20:00,45.4,16.6,30.16,West,270,4.0,12.0,31,0.00,,,0.00,0,WeatherCatV1.14B232,2013-04-05 05:20:00,
2013-04-04 23:25:00,45.4,16.6,30.16,West,270,4.0,12.0,31,0.00,,,0.00,0,WeatherCatV1.14B232,2013-04-05 05:25:00,
2013-04-04 23:30:00,45.4,16.6,30.16,West,270,4.0,12.0,31,0.00,,,0.00,0,WeatherCatV1.14B232,2013-04-05 05:30:00,
2013-04-04 23:35:00,44.6,17.3,30.16,West,270,7.0,11.0,33,0.00,,,0.00,0,WeatherCatV1.14B232,2013-04-05 05:35:00,
2013-04-04 23:40:00,44.6,17.3,30.16,West,270,7.0,11.0,33,0.00,,,0.00,0,WeatherCatV1.14B232,2013-04-05 05:40:00,
2013-04-04 23:45:00,44.6,17.3,30.16,West,270,7.0,11.0,33,0.00,,,0.00,0,WeatherCatV1.14B232,2013-04-05 05:45:00,
2013-04-04 23:50:00,44.1,17.5,30.15,West,270,7.0,12.0,34,0.00,,,0.00,0,WeatherCatV1.14B232,2013-04-05 05:50:00,
2013-04-04 23:55:00,44.1,17.5,30.15,West,270,7.0,12.0,34,0.00,,,0.00,0,WeatherCatV1.14B232,2013-04-05 05:55:00,